QPF
0.00 0.00 0.00 0.00 0.01 0.00 0.00 0.00 0.00 0.00 0.00 0.00 0.00 0.00 0.00 0.00 0.00 0.01 0.01 0.01 0.00 0.00 0.01 0.00 0.00 0.01 0.01 0.02 0.02 0.03 0.02 0.02 0.01 0.01 0.01 0.02 0.02 0.02 0.02 0.03 0.04 0.06 0.06 0.04 0.03 0.03 0.03 0.02 0.02
0.00 0.00 0.00 0.00 0.00 0.00 0.00 0.00 0.00 0.00 0.00 0.00 0.00 0.00 0.00 0.00 0.00 0.00 0.00 0.00 0.00 0.00 0.01 0.01 0.00 0.01 0.02 0.02 0.02 0.02 0.02 0.02 0.02 0.01 0.01 0.02 0.03 0.02 0.02 0.01 0.02 0.03 0.05 0.05 0.04 0.03 0.03 0.03 0.02
0.00 0.00 0.01 0.01 0.00 0.00 0.00 0.00 0.00 0.00 0.00 0.00 0.00 0.00 0.00 0.00 0.00 0.00 0.00 0.00 0.00 0.01 0.01 0.01 0.01 0.01 0.02 0.02 0.03 0.03 0.03 0.02 0.02 0.02 0.02 0.02 0.03 0.02 0.02 0.01 0.01 0.02 0.03 0.04 0.04 0.02 0.02 0.02 0.02
0.00 0.01 0.01 0.01 0.00 0.00 0.00 0.00 0.00 0.00 0.00 0.00 0.00 0.00 0.00 0.00 0.00 0.00 0.00 0.00 0.01 0.01 0.01 0.01 0.01 0.01 0.02 0.02 0.03 0.03 0.03 0.02 0.03 0.02 0.02 0.02 0.02 0.01 0.01 0.01 0.01 0.01 0.01 0.02 0.03 0.02 0.02 0.02 0.02
0.00 0.01 0.01 0.00 0.00 0.00 0.00 0.00 0.00 0.00 0.00 0.00 0.00 0.00 0.00 0.00 0.00 0.00 0.00 0.00 0.01 0.01 0.01 0.01 0.01 0.01 0.02 0.04 0.04 0.04 0.05 0.06 0.04 0.02 0.01 0.01 0.01 0.01 0.01 0.01 0.01 0.01 0.01 0.02 0.02 0.01 0.01 0.01 0.01
0.01 0.01 0.01 0.01 0.00 0.00 0.00 0.00 0.00 0.00 0.00 0.00 0.00 0.00 0.00 0.00 0.00 0.00 0.01 0.01 0.01 0.01 0.01 0.01 0.00 0.01 0.02 0.03 0.03 0.04 0.06 0.06 0.05 0.04 0.02 0.01 0.01 0.01 0.01 0.01 0.01 0.01 0.01 0.01 0.02 0.01 0.01 0.01 0.00
0.01 0.01 0.01 0.01 0.00 0.00 0.00 0.00 0.00 0.00 0.00 0.00 0.00 0.00 0.00 0.00 0.00 0.00 0.00 0.01 0.01 0.02 0.03 0.01 0.01 0.01 0.02 0.03 0.03 0.04 0.04 0.04 0.03 0.03 0.03 0.02 0.01 0.01 0.01 0.01 0.01 0.01 0.01 0.01 0.01 0.01 0.01 0.01 0.01
0.01 0.01 0.01 0.01 0.01 0.01 0.00 0.00 0.00 0.00 0.01 0.01 0.00 0.00 0.00 0.00 0.00 0.00 0.00 0.00 0.01 0.02 0.04 0.02 0.02 0.02 0.02 0.04 0.04 0.03 0.03 0.03 0.03 0.03 0.02 0.03 0.02 0.02 0.01 0.01 0.01 0.01 0.01 0.01 0.01 0.01 0.01 0.01 0.01
0.01 0.01 0.01 0.01 0.01 0.01 0.01 0.00 0.00 0.01 0.01 0.01 0.00 0.00 0.00 0.00 0.00 0.01 0.01 0.01 0.02 0.03 0.04 0.03 0.03 0.03 0.03 0.04 0.04 0.04 0.03 0.03 0.04 0.04 0.03 0.04 0.04 0.03 0.02 0.01 0.00 0.00 0.01 0.01 0.01 0.01 0.02 0.02 0.01
0.02 0.01 0.00 0.00 0.00 0.01 0.01 0.01 0.01 0.00 0.01 0.01 0.00 0.00 0.00 0.00 0.00 0.01 0.01 0.01 0.02 0.03 0.05 0.04 0.04 0.04 0.04 0.04 0.05 0.05 0.03 0.03 0.04 0.05 0.06 0.06 0.07 0.05 0.02 0.01 0.01 0.00 0.00 0.00 0.01 0.01 0.02 0.02 0.02
0.02 0.01 0.00 0.00 0.00 0.00 0.01 0.01 0.01 0.01 0.01 0.01 0.00 0.00 0.00 0.00 0.00 0.00 0.00 0.01 0.02 0.02 0.05 0.07 0.06 0.05 0.05 0.06 0.06 0.06 0.04 0.04 0.03 0.03 0.04 0.06 0.07 0.06 0.03 0.02 0.02 0.01 0.00 0.01 0.01 0.01 0.02 0.02 0.02
0.02 0.01 0.00 0.01 0.01 0.01 0.01 0.01 0.02 0.02 0.02 0.01 0.00 0.00 0.00 0.00 0.00 0.00 0.00 0.01 0.02 0.02 0.04 0.06 0.06 0.05 0.05 0.05 0.05 0.05 0.06 0.05 0.04 0.03 0.04 0.06 0.07 0.07 0.05 0.03 0.01 0.01 0.01 0.01 0.01 0.01 0.01 0.02 0.02
0.01 0.01 0.00 0.00 0.00 0.01 0.01 0.01 0.01 0.02 0.02 0.02 0.01 0.00 0.00 0.00 0.00 0.00 0.00 0.01 0.02 0.03 0.04 0.05 0.07 0.07 0.07 0.06 0.05 0.04 0.04 0.04 0.04 0.04 0.04 0.04 0.06 0.07 0.07 0.04 0.02 0.02 0.02 0.01 0.01 0.00 0.01 0.01 0.02
0.01 0.00 0.00 0.00 0.00 0.00 0.00 0.00 0.01 0.01 0.02 0.02 0.01 0.00 0.00 0.01 0.00 0.00 0.00 0.01 0.03 0.04 0.05 0.06 0.08 0.09 0.08 0.07 0.05 0.04 0.04 0.04 0.04 0.04 0.04 0.05 0.05 0.05 0.06 0.04 0.02 0.02 0.02 0.01 0.01 0.01 0.01 0.01 0.02
0.01 0.00 0.00 0.00 0.00 0.00 0.00 0.00 0.00 0.00 0.01 0.02 0.01 0.00 0.00 0.01 0.01 0.00 0.01 0.01 0.03 0.04 0.06 0.07 0.07 0.08 0.08 0.07 0.06 0.05 0.05 0.04 0.04 0.04 0.04 0.04 0.04 0.03 0.03 0.03 0.02 0.01 0.01 0.01 0.01 0.01 0.01 0.01 0.01
0.01 0.01 0.01 0.00 0.00 0.00 0.01 0.01 0.00 0.00 0.00 0.01 0.01 0.01 0.00 0.01 0.01 0.01 0.01 0.01 0.03 0.04 0.05 0.06 0.06 0.07 0.09 0.09 0.07 0.05 0.04 0.04 0.05 0.05 0.05 0.04 0.03 0.03 0.03 0.02 0.03 0.02 0.01 0.01 0.00 0.00 0.00 0.00 0.01
0.02 0.02 0.02 0.01 0.00 0.00 0.01 0.01 0.00 0.00 0.00 0.01 0.01 0.01 0.00 0.01 0.02 0.02 0.02 0.01 0.02 0.04 0.04 0.06 0.06 0.05 0.06 0.06 0.05 0.05 0.03 0.04 0.04 0.05 0.05 0.05 0.05 0.03 0.03 0.03 0.02 0.03 0.02 0.01 0.00 0.00 0.00 0.00 0.01
0.02 0.02 0.01 0.01 0.00 0.01 0.01 0.01 0.01 0.00 0.00 0.00 0.01 0.01 0.00 0.00 0.02 0.03 0.04 0.03 0.03 0.04 0.04 0.04 0.05 0.04 0.04 0.05 0.05 0.05 0.04 0.03 0.03 0.03 0.04 0.04 0.04 0.04 0.04 0.03 0.03 0.02 0.02 0.02 0.01 0.01 0.01 0.00 0.00
0.01 0.01 0.01 0.00 0.00 0.00 0.01 0.01 0.01 0.00 0.00 0.00 0.01 0.01 0.01 0.00 0.01 0.02 0.03 0.03 0.04 0.05 0.04 0.04 0.04 0.04 0.04 0.05 0.04 0.04 0.03 0.01 0.01 0.02 0.03 0.03 0.04 0.03 0.03 0.03 0.03 0.03 0.02 0.02 0.02 0.01 0.01 0.01 0.01
0.01 0.01 0.01 0.00 0.00 0.00 0.01 0.01 0.00 0.00 0.00 0.00 0.01 0.01 0.01 0.01 0.01 0.01 0.02 0.02 0.02 0.04 0.05 0.05 0.03 0.04 0.04 0.03 0.03 0.02 0.02 0.01 0.01 0.02 0.03 0.03 0.03 0.04 0.03 0.03 0.03 0.03 0.03 0.02 0.02 0.02 0.01 0.01 0.01
0.01 0.01 0.00 0.00 0.00 0.00 0.01 0.00 0.00 0.00 0.00 0.00 0.00 0.01 0.01 0.01 0.01 0.01 0.01 0.01 0.02 0.03 0.04 0.05 0.04 0.03 0.04 0.03 0.02 0.02 0.02 0.02 0.02 0.02 0.03 0.03 0.04 0.04 0.04 0.04 0.03 0.03 0.03 0.02 0.02 0.02 0.01 0.01 0.01
0.01 0.00 0.00 0.00 0.01 0.01 0.01 0.01 0.00 0.00 0.00 0.00 0.00 0.00 0.01 0.01 0.01 0.01 0.00 0.01 0.01 0.03 0.03 0.03 0.03 0.03 0.03 0.04 0.03 0.02 0.02 0.02 0.01 0.02 0.02 0.02 0.03 0.04 0.04 0.05 0.04 0.04 0.03 0.03 0.02 0.02 0.02 0.02 0.02
0.00 0.00 0.00 0.00 0.01 0.01 0.01 0.02 0.01 0.00 0.01 0.00 0.00 0.00 0.01 0.00 0.00 0.00 0.00 0.00 0.01 0.01 0.02 0.02 0.02 0.03 0.03 0.04 0.04 0.02 0.01 0.01 0.01 0.01 0.01 0.02 0.03 0.04 0.04 0.05 0.06 0.05 0.05 0.04 0.04 0.04 0.03 0.03 0.03
0.00 0.00 0.01 0.01 0.02 0.02 0.01 0.01 0.01 0.01 0.01 0.00 0.01 0.01 0.01 0.00 0.00 0.00 0.00 0.00 0.00 0.00 0.01 0.01 0.01 0.03 0.04 0.03 0.04 0.03 0.02 0.02 0.01 0.01 0.01 0.01 0.02 0.03 0.04 0.04 0.04 0.04 0.04 0.04 0.04 0.04 0.04 0.04 0.04
0.00 0.01 0.03 0.04 0.04 0.02 0.00 0.00 0.01 0.01 0.00 0.00 0.00 0.01 0.01 0.00 0.00 0.00 0.00 0.00 0.00 0.00 0.00 0.00 0.01 0.01 0.04 0.05 0.04 0.04 0.02 0.01 0.01 0.01 0.01 0.01 0.01 0.02 0.03 0.03 0.03 0.03 0.03 0.03 0.03 0.04 0.05 0.04 0.04
0.01 0.01 0.03 0.03 0.03 0.01 0.00 0.00 0.01 0.01 0.00 0.00 0.00 0.01 0.01 0.00 0.00 0.00 0.00 0.00 0.00 0.00 0.00 0.00 0.00 0.01 0.03 0.06 0.06 0.05 0.03 0.01 0.01 0.02 0.02 0.01 0.01 0.02 0.02 0.03 0.03 0.03 0.03 0.03 0.03 0.04 0.05 0.04 0.03
0.01 0.01 0.01 0.02 0.01 0.01 0.01 0.01 0.01 0.00 0.01 0.01 0.01 0.01 0.01 0.01 0.01 0.01 0.01 0.00 0.00 0.00 0.00 0.00 0.00 0.00 0.01 0.04 0.07 0.05 0.04 0.02 0.01 0.02 0.02 0.03 0.02 0.02 0.02 0.02 0.02 0.02 0.02 0.03 0.03 0.04 0.04 0.04 0.04
0.02 0.01 0.02 0.03 0.03 0.02 0.01 0.01 0.01 0.01 0.01 0.01 0.01 0.01 0.02 0.02 0.01 0.01 0.01 0.00 0.00 0.00 0.00 0.00 0.00 0.00 0.01 0.02 0.05 0.07 0.05 0.03 0.02 0.02 0.02 0.02 0.02 0.02 0.02 0.02 0.02 0.02 0.03 0.03 0.03 0.04 0.04 0.04 0.04
0.02 0.03 0.02 0.02 0.02 0.02 0.02 0.02 0.01 0.01 0.01 0.01 0.01 0.01 0.01 0.02 0.01 0.01 0.01 0.00 0.00 0.00 0.00 0.00 0.00 0.00 0.01 0.01 0.02 0.05 0.06 0.05 0.03 0.03 0.02 0.02 0.02 0.02 0.02 0.02 0.03 0.03 0.03 0.03 0.03 0.03 0.03 0.03 0.03
0.02 0.02 0.02 0.03 0.02 0.01 0.01 0.01 0.00 0.00 0.01 0.01 0.01 0.01 0.01 0.01 0.01 0.00 0.01 0.00 0.00 0.00 0.00 0.00 0.00 0.00 0.01 0.01 0.01 0.02 0.05 0.06 0.04 0.03 0.03 0.02 0.02 0.02 0.03 0.03 0.03 0.03 0.03 0.03 0.03 0.03 0.02 0.02 0.02
MSLP
1010.43 1011.02 1011.61 1012.04 1012.20 1012.02 1011.47 1010.61 1009.56 1008.47 1007.49 1006.75 1006.32 1006.21 1006.38 1006.74 1007.19 1007.64 1008.02 1008.33 1008.58 1008.84 1009.14 1009.52 1010.01 1010.59 1011.21 1011.84 1012.43 1012.96 1013.40 1013.78 1014.11 1014.42 1014.73 1015.05 1015.36 1015.67 1015.94 1016.19 1016.41 1016.61 1016.81 1017.01 1017.24 1017.47 1017.70 1017.91 1018.06
1010.62 1011.23 1011.76 1012.06 1012.05 1011.65 1010.90 1009.87 1008.71 1007.58 1006.62 1005.96 1005.64 1005.64 1005.91 1006.34 1006.83 1007.30 1007.70 1008.04 1008.35 1008.67 1009.07 1009.55 1010.13 1010.77 1011.43 1012.05 1012.61 1013.09 1013.49 1013.84 1014.17 1014.50 1014.84 1015.21 1015.57 1015.91 1016.20 1016.45 1016.67 1016.86 1017.05 1017.26 1017.50 1017.75 1018.00 1018.22 1018.38
1010.78 1011.36 1011.79 1011.94 1011.74 1011.16 1010.24 1009.11 1007.91 1006.80 1005.93 1005.38 1005.17 1005.28 1005.61 1006.07 1006.55 1007.01 1007.41 1007.76 1008.12 1008.52 1009.02 1009.61 1010.28 1010.99 1011.68 1012.30 1012.82 1013.25 1013.61 1013.92 1014.24 1014.58 1014.96 1015.36 1015.76 1016.13 1016.44 1016.68 1016.88 1017.06 1017.24 1017.45 1017.70 1017.98 1018.25 1018.49 1018.67
1010.86 1011.36 1011.65 1011.64 1011.25 1010.52 1009.51 1008.34 1007.17 1006.17 1005.43 1005.02 1004.94 1005.13 1005.49 1005.94 1006.39 1006.80 1007.16 1007.51 1007.90 1008.38 1008.97 1009.67 1010.44 1011.21 1011.93 1012.54 1013.03 1013.41 1013.71 1013.99 1014.30 1014.65 1015.06 1015.50 1015.93 1016.32 1016.64 1016.88 1017.07 1017.23 1017.40 1017.62 1017.88 1018.17 1018.47 1018.74 1018.93
1010.78 1011.16 1011.30 1011.11 1010.58 1009.74 1008.69 1007.56 1006.50 1005.65 1005.09 1004.85 1004.90 1005.16 1005.54 1005.95 1006.34 1006.67 1006.98 1007.31 1007.72 1008.26 1008.94 1009.73 1010.58 1011.40 1012.14 1012.74 1013.19 1013.52 1013.79 1014.04 1014.33 1014.70 1015.13 1015.60 1016.07 1016.48 1016.81 1017.05 1017.23 1017.38 1017.55 1017.76 1018.03 1018.34 1018.66 1018.95 1019.16
1010.51 1010.74 1010.71 1010.37 1009.72 1008.83 1007.80 1006.78 1005.88 1005.23 1004.88 1004.81 1004.99 1005.32 1005.71 1006.08 1006.39 1006.64 1006.88 1007.19 1007.61 1008.18 1008.92 1009.78 1010.68 1011.54 1012.28 1012.86 1013.28 1013.58 1013.81 1014.04 1014.33 1014.71 1015.17 1015.67 1016.16 1016.59 1016.94 1017.18 1017.36 1017.51 1017.67 1017.88 1018.16 1018.48 1018.82 1019.12 1019.34
1010.03 1010.12 1009.93 1009.47 1008.75 1007.85 1006.90 1006.01 1005.31 1004.87 1004.73 1004.85 1005.15 1005.54 1005.93 1006.27 1006.51 1006.69 1006.88 1007.15 1007.57 1008.16 1008.93 1009.81 1010.74 1011.60 1012.34 1012.90 1013.29 1013.56 1013.77 1013.99 1014.29 1014.69 1015.17 1015.69 1016.21 1016.66 1017.02 1017.27 1017.45 1017.60 1017.77 1017.98 1018.26 1018.58 1018.92 1019.22 1019.45
1009.39 1009.35 1009.04 1008.49 1007.75 1006.89 1006.04 1005.31 1004.80 1004.57 1004.62 1004.88 1005.29 1005.74 1006.15 1006.45 1006.66 1006.80 1006.95 1007.20 1007.60 1008.19 1008.96 1009.84 1010.76 1011.60 1012.31 1012.85 1013.22 1013.47 1013.68 1013.91 1014.22 1014.63 1015.13 1015.68 1016.21 1016.67 1017.04 1017.31 1017.49 1017.65 1017.82 1018.03 1018.31 1018.62 1018.95 1019.24 1019.45
1008.65 1008.51 1008.14 1007.56 1006.84 1006.05 1005.32 1004.75 1004.41 1004.34 1004.52 1004.90 1005.38 1005.86 1006.28 1006.59 1006.78 1006.91 1007.05 1007.29 1007.68 1008.26 1009.00 1009.85 1010.72 1011.53 1012.20 1012.72 1013.07 1013.32 1013.54 1013.78 1014.11 1014.54 1015.06 1015.61 1016.15 1016.62 1016.99 1017.26 1017.46 1017.63 1017.80 1018.02 1018.28 1018.59 1018.89 1019.16 1019.36
1007.87 1007.69 1007.31 1006.77 1006.11 1005.43 1004.82 1004.38 1004.16 1004.19 1004.44 1004.87 1005.37 1005.87 1006.29 1006.61 1006.82 1006.96 1007.13 1007.37 1007.76 1008.31 1009.02 1009.81 1010.63 1011.38 1012.01 1012.50 1012.85 1013.12 1013.36 1013.63 1013.98 1014.42 1014.94 1015.48 1016.01 1016.48 1016.85 1017.13 1017.34 1017.52 1017.71 1017.93 1018.19 1018.48 1018.76 1019.00 1019.18
1007.10 1006.94 1006.62 1006.16 1005.62 1005.07 1004.59 1004.24 1004.09 1004.15 1004.41 1004.81 1005.28 1005.75 1006.16 1006.48 1006.72 1006.91 1007.11 1007.38 1007.77 1008.30 1008.96 1009.69 1010.44 1011.14 1011.73 1012.21 1012.57 1012.86 1013.13 1013.44 1013.81 1014.25 1014.76 1015.29 1015.80 1016.25 1016.62 1016.90 1017.13 1017.32 1017.53 1017.76 1018.02 1018.30 1018.56 1018.78 1018.93
1006.35 1006.26 1006.06 1005.75 1005.37 1004.97 1004.61 1004.34 1004.21 1004.24 1004.43 1004.73 1005.11 1005.51 1005.88 1006.19 1006.46 1006.69 1006.94 1007.25 1007.66 1008.18 1008.79 1009.47 1010.16 1010.81 1011.38 1011.85 1012.24 1012.56 1012.87 1013.21 1013.59 1014.03 1014.52 1015.02 1015.50 1015.93 1016.29 1016.58 1016.82 1017.04 1017.27 1017.52 1017.79 1018.06 1018.31 1018.51 1018.66
1005.60 1005.62 1005.58 1005.46 1005.28 1005.06 1004.83 1004.63 1004.49 1004.45 1004.51 1004.67 1004.91 1005.19 1005.48 1005.77 1006.05 1006.32 1006.62 1006.97 1007.39 1007.90 1008.49 1009.13 1009.78 1010.40 1010.96 1011.45 1011.87 1012.24 1012.58 1012.94 1013.33 1013.75 1014.21 1014.67 1015.11 1015.52 1015.87 1016.17 1016.44 1016.70 1016.95 1017.22 1017.50 1017.78 1018.03 1018.23 1018.37
1004.81 1004.96 1005.10 1005.21 1005.26 1005.23 1005.15 1005.02 1004.87 1004.74 1004.66 1004.65 1004.71 1004.84 1005.03 1005.26 1005.52 1005.82 1006.15 1006.53 1006.98 1007.49 1008.06 1008.68 1009.31 1009.93 1010.51 1011.03 1011.49 1011.90 1012.28 1012.65 1013.03 1013.43 1013.84 1014.26 1014.66 1015.05 1015.40 1015.72 1016.02 1016.31 1016.60 1016.89 1017.19 1017.48 1017.74 1017.95 1018.10
1003.96 1004.23 1004.55 1004.89 1005.17 1005.37 1005.45 1005.41 1005.26 1005.06 1004.84 1004.66 1004.55 1004.52 1004.59 1004.74 1004.97 1005.26 1005.60 1006.01 1006.47 1006.99 1007.56 1008.18 1008.82 1009.45 1010.06 1010.62 1011.13 1011.58 1011.98 1012.35 1012.71 1013.07 1013.44 1013.81 1014.18 1014.55 1014.90 1015.24 1015.58 1015.90 1016.23 1016.55 1016.87 1017.18 1017.45 1017.67 1017.85
1003.04 1003.39 1003.88 1004.43 1004.95 1005.37 1005.62 1005.69 1005.59 1005.34 1005.02 1004.70 1004.43 1004.26 1004.20 1004.27 1004.44 1004.71 1005.05 1005.45 1005.92 1006.45 1007.03 1007.66 1008.33 1009.00 1009.66 1010.27 1010.82 1011.30 1011.71 1012.08 1012.40 1012.71 1013.03 1013.35 1013.69 1014.05 1014.42 1014.79 1015.16 1015.52 1015.88 1016.22 1016.56 1016.87 1017.16 1017.41 1017.61
1002.06 1002.47 1003.09 1003.82 1004.55 1005.17 1005.61 1005.81 1005.76 1005.52 1005.14 1004.73 1004.34 1004.06 1003.90 1003.88 1003.99 1004.22 1004.54 1004.94 1005.40 1005.93 1006.53 1007.19 1007.88 1008.60 1009.30 1009.97 1010.56 1011.06 1011.48 1011.82 1012.10 1012.36 1012.63 1012.92 1013.24 1013.59 1013.97 1014.37 1014.78 1015.17 1015.55 1015.91 1016.26 1016.58 1016.87 1017.14 1017.38
1001.10 1001.53 1002.23 1003.09 1003.99 1004.79 1005.39 1005.71 1005.74 1005.53 1005.14 1004.68 1004.23 1003.87 1003.64 1003.56 1003.62 1003.81 1004.10 1004.48 1004.93 1005.46 1006.07 1006.75 1007.48 1008.24 1008.99 1009.70 1010.32 1010.84 1011.25 1011.56 1011.81 1012.03 1012.25 1012.51 1012.81 1013.18 1013.58 1014.01 1014.45 1014.87 1015.26 1015.63 1015.97 1016.29 1016.60 1016.88 1017.15
1000.21 1000.64 1001.39 1002.34 1003.35 1004.27 1004.98 1005.39 1005.50 1005.32 1004.95 1004.48 1004.01 1003.62 1003.36 1003.24 1003.28 1003.44 1003.70 1004.05 1004.49 1005.01 1005.62 1006.31 1007.07 1007.87 1008.66 1009.41 1010.06 1010.59 1010.99 1011.28 1011.50 1011.68 1011.87 1012.11 1012.42 1012.79 1013.23 1013.69 1014.15 1014.59 1014.99 1015.36 1015.70 1016.01 1016.32 1016.62 1016.92
999.47 999.90 1000.67 1001.66 1002.72 1003.68 1004.43 1004.89 1005.02 1004.86 1004.51 1004.05 1003.59 1003.21 1002.95 1002.84 1002.87 1003.01 1003.26 1003.59 1004.01 1004.52 1005.12 1005.81 1006.59 1007.42 1008.24 1009.01 1009.69 1010.23 1010.64 1010.92 1011.12 1011.28 1011.47 1011.71 1012.02 1012.42 1012.88 1013.37 1013.85 1014.31 1014.72 1015.09 1015.41 1015.72 1016.03 1016.35 1016.67
998.91 999.36 1000.14 1001.12 1002.15 1003.09 1003.80 1004.22 1004.32 1004.14 1003.78 1003.33 1002.89 1002.54 1002.32 1002.24 1002.29 1002.45 1002.69 1003.01 1003.41 1003.90 1004.48 1005.17 1005.95 1006.79 1007.63 1008.43 1009.13 1009.70 1010.12 1010.42 1010.63 1010.80 1011.00 1011.25 1011.59 1012.01 1012.50 1013.02 1013.53 1014.00 1014.41 1014.78 1015.10 1015.41 1015.73 1016.07 1016.42
998.53 999.03 999.81 1000.75 1001.71 1002.53 1003.12 1003.41 1003.41 1003.16 1002.75 1002.29 1001.87 1001.57 1001.40 1001.37 1001.46 1001.66 1001.91 1002.23 1002.61 1003.07 1003.63 1004.30 1005.07 1005.91 1006.77 1007.60 1008.33 1008.94 1009.41 1009.75 1009.99 1010.20 1010.43 1010.72 1011.09 1011.55 1012.06 1012.61 1013.14 1013.62 1014.05 1014.42 1014.75 1015.07 1015.41 1015.76 1016.14
998.30 998.87 999.66 1000.53 1001.36 1002.01 1002.41 1002.51 1002.34 1001.96 1001.47 1000.97 1000.56 1000.30 1000.19 1000.23 1000.39 1000.62 1000.91 1001.23 1001.60 1002.04 1002.57 1003.20 1003.95 1004.79 1005.66 1006.52 1007.30 1007.97 1008.51 1008.91 1009.23 1009.51 1009.79 1010.13 1010.54 1011.03 1011.57 1012.14 1012.68 1013.19 1013.63 1014.02 1014.37 1014.72 1015.07 1015.45 1015.86
998.16 998.81 999.59 1000.37 1001.04 1001.50 1001.66 1001.53 1001.16 1000.61 1000.01 999.46 999.05 998.82 998.78 998.89 999.12 999.42 999.74 1000.07 1000.43 1000.84 1001.33 1001.93 1002.65 1003.48 1004.36 1005.26 1006.10 1006.85 1007.47 1007.98 1008.39 1008.75 1009.11 1009.51 1009.96 1010.48 1011.05 1011.64 1012.20 1012.73 1013.19 1013.61 1013.99 1014.37 1014.75 1015.17 1015.61
998.03 998.74 999.51 1000.20 1000.70 1000.93 1000.86 1000.50 999.91 999.20 998.50 997.90 997.49 997.30 997.32 997.51 997.82 998.17 998.53 998.88 999.22 999.60 1000.05 1000.61 1001.30 1002.11 1003.00 1003.94 1004.85 1005.68 1006.42 1007.04 1007.56 1008.02 1008.47 1008.92 1009.43 1009.98 1010.56 1011.17 1011.75 1012.30 1012.79 1013.25 1013.67 1014.08 1014.51 1014.96 1015.42
997.87 998.61 999.32 999.90 1000.24 1000.28 1000.00 999.43 998.68 997.84 997.06 996.44 996.04 995.90 995.99 996.26 996.64 997.05 997.45 997.81 998.14 998.49 998.89 999.41 1000.06 1000.85 1001.75 1002.72 1003.69 1004.62 1005.47 1006.20 1006.85 1007.41 1007.94 1008.46 1009.01 1009.59 1010.19 1010.80 1011.40 1011.97 1012.51 1013.00 1013.46 1013.92 1014.39 1014.87 1015.36
997.64 998.34 998.97 999.43 999.63 999.51 999.07 998.38 997.52 996.63 995.83 995.22 994.88 994.81 994.98 995.33 995.78 996.25 996.67 997.04 997.36 997.67 998.03 998.50 999.11 999.87 1000.77 1001.76 1002.79 1003.80 1004.74 1005.59 1006.34 1007.00 1007.61 1008.19 1008.78 1009.37 1009.99 1010.61 1011.23 1011.83 1012.39 1012.93 1013.44 1013.95 1014.45 1014.95 1015.46
997.34 997.93 998.44 998.77 998.85 998.62 998.11 997.37 996.50 995.63 994.89 994.37 994.12 994.14 994.41 994.84 995.36 995.87 996.33 996.70 997.01 997.29 997.61 998.02 998.58 999.31 1000.19 1001.18 1002.24 1003.31 1004.33 1005.26 1006.10 1006.84 1007.52 1008.15 1008.76 1009.38 1010.00 1010.64 1011.27 1011.90 1012.50 1013.09 1013.65 1014.19 1014.73 1015.25 1015.76
996.96 997.38 997.73 997.94 997.93 997.66 997.15 996.45 995.67 994.92 994.31 993.92 993.81 993.96 994.33 994.85 995.43 995.99 996.47 996.85 997.15 997.40 997.69 998.05 998.57 999.24 1000.09 1001.06 1002.12 1003.20 1004.26 1005.25 1006.14 1006.94 1007.66 1008.33 1008.97 1009.60 1010.24 1010.89 1011.54 1012.20 1012.84 1013.47 1014.07 1014.66 1015.22 1015.76 1016.27
996.54 996.74 996.93 997.03 996.96 996.70 996.25 995.68 995.06 994.49 994.06 993.85 993.90 994.18 994.66 995.26 995.91 996.51 997.02 997.42 997.72 997.97 998.23 998.56 999.02 999.64 1000.43 1001.36 1002.38 1003.44 1004.50 1005.50 1006.42 1007.25 1008.00 1008.69 1009.35 1009.99 1010.64 1011.31 1011.99 1012.67 1013.36 1014.03 1014.68 1015.30 1015.88 1016.43 1016.94
Thickness
5698 5702 5705 5698 5683 5678 5686 5708 5722 5724 5726 5731 5734 5732 5724 5716 5712 5700 5712 5723 5724 5722 5720 5717 5717 5716 5716 5715 5715 5714 5714 5713 5713 5712 5712 5711 5711 5711 5711 5711 5711 5711 5711 5711 5711 5711 5711 5711 5711
5693 5698 5695 5685 5672 5670 5688 5708 5713 5717 5722 5726 5726 5725 5719 5711 5714 5709 5712 5717 5719 5718 5715 5712 5711 5711 5710 5710 5710 5709 5709 5708 5708 5707 5707 5706 5706 5706 5706 5706 5706 5706 5706 5707 5707 5706 5706 5706 5706
5688 5692 5681 5675 5672 5676 5689 5706 5708 5715 5719 5718 5713 5714 5711 5705 5708 5706 5709 5713 5714 5713 5710 5707 5706 5705 5705 5704 5704 5704 5703 5703 5703 5702 5701 5701 5701 5700 5700 5701 5701 5701 5701 5702 5702 5702 5702 5701 5701
5682 5677 5674 5667 5670 5687 5695 5702 5706 5706 5708 5710 5706 5699 5701 5704 5704 5703 5705 5707 5707 5706 5704 5701 5700 5699 5699 5699 5698 5698 5697 5697 5697 5696 5696 5695 5695 5695 5695 5695 5695 5696 5696 5696 5697 5697 5696 5696 5696
5673 5666 5659 5659 5670 5686 5695 5700 5701 5697 5696 5700 5699 5690 5687 5695 5699 5698 5700 5700 5699 5699 5698 5696 5694 5693 5693 5693 5692 5692 5692 5691 5691 5690 5690 5689 5689 5689 5689 5689 5689 5690 5690 5691 5691 5691 5691 5691 5691
5658 5658 5649 5654 5668 5681 5689 5695 5693 5690 5690 5693 5691 5683 5679 5687 5689 5690 5692 5693 5693 5692 5691 5689 5689 5688 5687 5686 5686 5686 5686 5685 5684 5684 5683 5683 5683 5683 5683 5683 5683 5684 5684 5685 5685 5685 5686 5686 5686
5648 5646 5646 5657 5663 5671 5680 5687 5683 5682 5680 5683 5687 5677 5673 5677 5681 5683 5684 5685 5685 5685 5684 5681 5681 5681 5681 5680 5679 5679 5679 5679 5678 5678 5677 5677 5677 5677 5677 5677 5677 5678 5678 5678 5679 5679 5680 5680 5680
5647 5642 5645 5652 5655 5660 5671 5675 5676 5673 5671 5681 5680 5670 5665 5671 5675 5675 5676 5676 5676 5676 5676 5675 5674 5675 5674 5673 5672 5672 5672 5672 5672 5671 5671 5670 5670 5670 5670 5671 5671 5671 5672 5672 5673 5673 5674 5674 5675
5642 5629 5634 5646 5650 5653 5663 5662 5664 5668 5665 5667 5669 5666 5666 5668 5668 5666 5665 5665 5665 5666 5667 5668 5667 5667 5667 5667 5666 5665 5665 5665 5665 5664 5664 5664 5663 5663 5663 5664 5664 5664 5665 5666 5667 5667 5668 5668 5669
5630 5622 5634 5645 5648 5647 5651 5652 5653 5654 5652 5652 5654 5656 5657 5657 5657 5656 5655 5655 5655 5656 5658 5659 5659 5659 5660 5660 5658 5658 5658 5658 5658 5658 5658 5657 5657 5656 5656 5657 5657 5657 5658 5659 5660 5661 5662 5662 5663
5627 5624 5632 5637 5640 5640 5639 5642 5646 5642 5639 5643 5643 5645 5647 5647 5647 5647 5647 5648 5648 5649 5649 5650 5650 5650 5651 5651 5651 5651 5651 5651 5651 5651 5651 5650 5650 5650 5650 5650 5650 5650 5651 5652 5653 5654 5655 5656 5656
5621 5624 5627 5628 5631 5630 5630 5633 5633 5634 5635 5641 5642 5642 5641 5639 5639 5640 5640 5640 5640 5640 5641 5642 5641 5641 5642 5643 5643 5644 5644 5643 5643 5643 5643 5643 5643 5643 5643 5642 5643 5643 5643 5644 5645 5646 5647 5649 5650
5615 5616 5621 5623 5623 5623 5623 5622 5622 5626 5632 5635 5635 5634 5633 5633 5633 5633 5633 5632 5632 5632 5632 5632 5632 5633 5634 5634 5634 5635 5635 5635 5635 5635 5635 5635 5635 5635 5635 5634 5635 5635 5635 5636 5637 5638 5640 5641 5642
5610 5611 5613 5615 5615 5616 5613 5614 5614 5621 5626 5626 5626 5625 5626 5626 5626 5625 5624 5624 5624 5624 5624 5623 5623 5624 5626 5625 5626 5626 5626 5626 5626 5626 5626 5627 5627 5627 5627 5626 5627 5627 5627 5628 5628 5629 5630 5631 5633
5605 5600 5604 5609 5610 5610 5607 5604 5610 5617 5619 5617 5618 5618 5619 5619 5619 5618 5617 5616 5616 5616 5615 5615 5615 5616 5616 5616 5616 5616 5616 5616 5617 5617 5617 5618 5619 5619 5618 5618 5618 5618 5618 5619 5619 5620 5621 5622 5623
5597 5592 5592 5605 5607 5604 5594 5594 5609 5614 5611 5609 5610 5610 5610 5610 5610 5610 5609 5608 5608 5607 5606 5606 5607 5607 5607 5606 5606 5606 5606 5606 5607 5607 5608 5608 5609 5609 5609 5609 5608 5609 5609 5609 5609 5610 5610 5611 5612
5586 5582 5588 5595 5602 5598 5589 5590 5603 5607 5604 5602 5603 5602 5601 5601 5601 5601 5600 5599 5599 5598 5597 5596 5597 5597 5597 5597 5597 5596 5596 5596 5597 5597 5598 5598 5599 5599 5599 5599 5599 5599 5599 5599 5599 5599 5599 5600 5601
5577 5581 5586 5586 5591 5589 5583 5587 5594 5598 5597 5595 5595 5594 5593 5593 5593 5592 5590 5590 5589 5588 5588 5587 5587 5587 5587 5587 5586 5587 5586 5585 5586 5587 5587 5588 5589 5588 5589 5589 5588 5588 5588 5588 5588 5588 5588 5589 5589
5576 5574 5575 5581 5584 5579 5577 5581 5587 5590 5589 5587 5586 5585 5585 5585 5585 5584 5581 5580 5579 5578 5578 5577 5577 5577 5577 5576 5576 5575 5574 5574 5576 5577 5577 5578 5579 5578 5578 5578 5578 5578 5577 5577 5577 5577 5577 5577 5578
5568 5565 5567 5571 5574 5570 5568 5573 5582 5585 5584 5583 5581 5579 5578 5576 5576 5575 5573 5571 5569 5567 5567 5567 5567 5567 5567 5567 5567 5566 5566 5565 5565 5566 5566 5567 5568 5568 5567 5567 5567 5566 5566 5565 5565 5566 5565 5565 5565
5560 5557 5556 5555 5559 5562 5556 5562 5574 5580 5581 5580 5578 5575 5572 5570 5567 5566 5565 5562 5559 5557 5556 5557 5556 5556 5556 5556 5556 5556 5554 5554 5554 5554 5555 5556 5556 5557 5556 5556 5555 5555 5554 5553 5554 5555 5554 5553 5553
5549 5554 5550 5547 5539 5539 5548 5536 5562 5568 5568 5569 5569 5566 5563 5561 5559 5556 5555 5552 5550 5548 5547 5546 5546 5546 5545 5545 5545 5544 5544 5544 5544 5545 5545 5546 5545 5546 5546 5545 5544 5544 5543 5543 5543 5543 5543 5542 5541
5543 5544 5541 5538 5531 5526 5537 5526 5546 5559 5556 5558 5559 5558 5555 5552 5550 5548 5546 5544 5541 5538 5537 5535 5535 5534 5534 5534 5535 5535 5535 5535 5535 5535 5535 5535 5535 5534 5534 5534 5533 5533 5532 5532 5532 5532 5532 5531 5530
5537 5533 5530 5526 5519 5511 5530 5524 5536 5547 5550 5551 5550 5548 5544 5542 5540 5539 5537 5534 5531 5528 5527 5526 5525 5524 5523 5524 5524 5525 5525 5525 5524 5523 5523 5523 5523 5523 5523 5523 5522 5522 5521 5521 5520 5520 5520 5520 5519
5524 5515 5508 5507 5505 5514 5530 5522 5530 5542 5544 5543 5538 5536 5533 5532 5529 5527 5525 5523 5521 5518 5517 5516 5515 5514 5513 5513 5514 5514 5515 5514 5514 5513 5513 5512 5512 5512 5512 5512 5512 5511 5511 5510 5509 5509 5509 5509 5509
5513 5512 5499 5497 5505 5517 5520 5515 5530 5536 5535 5533 5529 5526 5523 5521 5518 5516 5514 5512 5510 5509 5507 5506 5505 5504 5504 5504 5503 5504 5504 5503 5503 5503 5502 5501 5501 5501 5500 5501 5500 5500 5499 5499 5499 5498 5498 5498 5498
5505 5500 5504 5492 5490 5487 5508 5522 5526 5529 5525 5522 5518 5515 5511 5509 5507 5505 5504 5502 5501 5500 5498 5497 5496 5495 5495 5494 5493 5493 5493 5493 5493 5492 5491 5490 5490 5489 5488 5489 5489 5489 5488 5488 5488 5487 5487 5487 5487
5499 5497 5485 5480 5477 5486 5509 5514 5514 5516 5513 5510 5505 5502 5500 5498 5496 5495 5494 5493 5492 5491 5489 5488 5487 5486 5486 5484 5483 5484 5482 5482 5481 5481 5480 5480 5479 5478 5477 5477 5477 5477 5477 5477 5477 5476 5476 5476 5476
5487 5485 5482 5479 5479 5478 5484 5501 5515 5510 5506 5500 5495 5492 5489 5487 5485 5483 5483 5483 5482 5481 5479 5478 5477 5476 5475 5474 5472 5472 5471 5471 5471 5470 5470 5469 5468 5467 5466 5466 5466 5466 5466 5466 5466 5466 5466 5466 5465
5486 5483 5474 5464 5466 5471 5470 5486 5506 5502 5498 5493 5487 5485 5482 5479 5477 5475 5473 5473 5472 5471 5470 5468 5467 5466 5465 5463 5462 5461 5461 5460 5460 5459 5459 5458 5457 5456 5456 5455 5456 5456 5456 5456 5456 5456 5456 5456 5455